This is the latest recevied weather packets stored in our database for station/object N4PWG. If no packets are shown the sender has not sent any weather packets the latest 10 day(s).
| Time | Temp. | Humidity | Pressure | Rain* | Wind** | Luminosity | Snow |
|---|---|---|---|---|---|---|---|
| 1777813470 | 10° C | 94% | 1039.2 hPa | 0 mm | - | 99 W/m² | - |
| 1777813167 | 8.89° C | 96% | 1039.1 hPa | 0 mm | - | 87 W/m² | - |
| 1777812860 | 8.89° C | 98% | 1039.2 hPa | 0 mm | - | 80 W/m² | - |
| 1777812556 | 8.33° C | 99% | 1038.9 hPa | 0 mm | - | 75 W/m² | - |
| 1777812254 | 8.33° C | 99% | 1039.1 hPa | 0 mm | - | 67 W/m² | - |
| 1777811952 | 7.78° C | 99% | 1039.1 hPa | 0 mm | - | 64 W/m² | - |
| 1777811650 | 7.78° C | 99% | 1038.8 hPa | 0 mm | - | 58 W/m² | - |
| 1777811345 | 7.22° C | 99% | 1038.8 hPa | 0 mm | - | 55 W/m² | - |
| 1777811043 | 7.22° C | 99% | 1038.7 hPa | 0 mm | - | 51 W/m² | - |
| 1777810740 | 6.67° C | 99% | 1038.8 hPa | 0 mm | - | 47 W/m² | - |
| 1777810436 | 6.11° C | 99% | 1038.7 hPa | 0 mm | - | 46 W/m² | - |
| 1777810132 | 5° C | 99% | 1038.8 hPa | 0 mm | - | 44 W/m² | - |
| 1777809830 | 4.44° C | 99% | 1038.6 hPa | 0 mm | - | 36 W/m² | - |
| 1777809527 | 3.89° C | 99% | 1038.7 hPa | 0 mm | - | 27 W/m² | - |
| 1777809225 | 3.89° C | 99% | 1038.5 hPa | 0 mm | - | 25 W/m² | - |
| 1777808923 | 3.33° C | 99% | 1038.5 hPa | 0 mm | - | 23 W/m² | - |
| 1777808619 | 3.33° C | 99% | 1038.6 hPa | 0 mm | - | 20 W/m² | - |
| 1777808316 | 3.33° C | 99% | 1038.4 hPa | 0 mm | - | 18 W/m² | - |
| 1777808015 | 2.78° C | 99% | 1038.5 hPa | 0 mm | - | 16 W/m² | - |
| 1777807711 | 2.78° C | 99% | 1038.1 hPa | 0 mm | - | 13 W/m² | - |
| 1777807410 | 2.78° C | 99% | 1038.1 hPa | 0 mm | - | 11 W/m² | - |
| 1777807109 | 2.78° C | 99% | 1038.3 hPa | 0 mm | - | 9 W/m² | - |
| 1777806808 | 3.33° C | 99% | 1038.1 hPa | 0 mm | - | 6 W/m² | - |
| 1777806503 | 3.33° C | 99% | 1038 hPa | 0 mm | - | 3 W/m² | - |
| 1777806200 | 3.33° C | 99% | 1038 hPa | 0 mm | - | 2 W/m² | - |
* Rain latest hour (hover to see other rain measurements)
** Current wind speed in m/s (hover to see current wind gust speed)